User: anonymous   Login
Location: Crayja
(6.2254°N, 10.6273°W)
Time: 07:15:22
(UTC+00:00)
Language:

Cosmos 2297 - Orbit

View from above orbital plane
View from above orbital plane
View from above satellite
View from above satellite

Ground track
Ground track

The orbit data is extracted from the following two-line orbital elements,

1 23404U 94077A   20156.50903086 -.00000362  00000-0 -16682-3 0  9994
2 23404  71.0124 185.1783 0018101 298.8305  61.0999 14.13534111317154
Epoch (UTC): 04 June 2020 12:13:00
Eccentricity: 0.0018101
inclination: 71.0124°
perigee height: 834 km
apogee height: 860 km
right ascension of ascending node: 185.1783°
argument of perigee: 298.8305°
revolutions per day: 14.13534111
mean anomaly at epoch: 61.0999°
orbit number at epoch: 31715

The dashed part of the orbit path shows where the satellite is in the earth's shadow,  

DLR